This demonstration page uses our WeatherBlox Daily Observations layout. Learn more.

Left ArrowRight Arrow

36.17497, -115.13722

Hourly Observations for February 17, 2019

Temp ( °F °C ) Dew Point ( °F °C ) Humidity (%) Winds ( mph kmh ) Pressure ( in mb ) Visibility ( mi km ) Precip ( " mm )
12:53 am 00:53 Cloudy 41 5 32 0 70 70 NE 3 6 29.98 1015 10 16 0.00 0.00
1:53 am 01:53 Mostly Cloudy 40 4.4 31 -0.6 70 70 NW 5 7 29.97 1015 10 16 0.00 0.00
2:53 am 02:53 Clear 38 3.3 32 0 79 79 Calm 29.96 1014 10 16 0.00 0.00
3:53 am 03:53 Clear 37 2.8 31 -0.6 79 79 N 5 7 29.94 1014 10 16 0.00 0.00
4:53 am 04:53 Clear 36 2.2 30 -1.1 79 79 N 3 6 29.95 1014 10 16 0.00 0.00
5:53 am 05:53 Clear 35 1.7 29 -1.7 78 78 Calm 29.96 1015 10 16 0.00 0.00
6:53 am 06:53 Sunny 35 1.7 28 -2.2 76 76 Calm 29.97 1015 10 16 0.00 0.00
7:53 am 07:53 Sunny 39 3.9 29 -1.7 67 67 Calm 29.99 1016 10 16 0.00 0.00
8:53 am 08:53 Mostly Cloudy 41 5 28 -2.2 60 60 NNE 6 9 30.00 1016 10 16 0.00 0.00
9:53 am 09:53 Mostly Sunny 44 6.7 30 -1.1 58 58 Calm 29.98 1015 10 16 0.00 0.00
10:53 am 10:53 Sunny 45 7.2 29 -1.7 54 54 ESE 7 11 29.96 1015 10 16 0.00 0.00
11:53 am 11:53 Partly Cloudy 48 8.9 30 -1.1 50 50 S 6 9 29.93 1014 10 16 0.00 0.00
12:53 pm 12:53 Cloudy 47 8.3 30 -1.1 52 52 ESE 9 15 29.90 1012 10 16 0.00 0.00
1:53 pm 13:53 Cloudy 47 8.3 30 -1.1 52 52 S 6 9 29.88 1012 10 16 0.00 0.03
2:53 pm 14:53 Mostly Cloudy 49 9.4 23 -5 36 36 SSW 16 26 29.85 1011 10 16 0.00 0.00
3:00 pm 15:00 Mostly Cloudy 48 8.9 23 -5 37 37 SW 20 31 29.79 1009 10 16 0.00 0.00
3:53 pm 15:53 Mostly Cloudy 47 8.3 24 -4.4 41 41 WNW 14 22 29.85 1011 10 16 0.00 0.00
4:53 pm 16:53 Cloudy 43 6.1 33 0.6 68 68 E 13 20 29.86 1011 10 16 0.00 0.00
5:53 pm 17:53 Mostly Clear 42 5.6 30 -1.1 62 62 S 8 13 29.87 1012 10 16 0.00 0.00
6:53 pm 18:53 Mostly Cloudy 41 5 32 0 70 70 E 5 7 29.91 1013 10 16 0.00 0.00
7:11 pm 19:11 Mostly Cloudy 40 4.4 32 0 73 73 E 14 22 29.88 1012 10 16 0.00 0.00
7:53 pm 19:53 Cloudy 38 3.3 33 0.6 83 83 N 9 15 29.91 1013 10 16 0.00 0.00
8:53 pm 20:53 Cloudy with Light Snow 34 1.1 32 0 92 92 NNW 9 15 29.93 1013 6 10 0.04 1.02
9:09 pm 21:09 Cloudy with Light Snow 34 1.1 33 0.6 97 97 N 6 9 29.93 1014 3 5 0.03 0.76
9:21 pm 21:21 Cloudy with Rain 35 1.7 33 0.6 93 93 N 8 13 29.93 1013 4 6 0.07 1.78
9:30 pm 21:30 Cloudy with Light Rain 35 1.7 33 0.6 93 93 N 8 13 29.93 1013 7 11 0.09 2.29
9:53 pm 21:53 Cloudy with Light Snow 34 1.1 32 0 92 92 N 10 17 29.93 1014 3 4 0.15 3.81
10:00 pm 22:00 Cloudy with Light Snow 34 1.1 32 0 92 92 N 9 15 29.94 1014 3 5 0.02 0.51
10:16 pm 22:16 Cloudy with Rain 35 1.7 33 0.6 93 93 N 8 13 29.94 1014 6 10 0.06 1.52
10:53 pm 22:53 Cloudy with Light Rain 35 1.7 33 0.6 93 93 NNW 10 17 29.93 1014 10 16 0.11 2.79
11:14 pm 23:14 Cloudy with Light Rain 35 1.7 33 0.6 93 93 NNW 12 19 29.94 1014 10 16 0.01 0.25
11:24 pm 23:24 Cloudy with Light Rain 36 2.2 33 0.6 89 89 WNW 9 15 29.93 1014 10 16 0.02 0.51
11:53 pm 23:53 Cloudy with Light Rain 37 2.8 34 1.1 89 89 NNW 6 9 29.93 1014 10 16 0.03 0.76

Powered by AerisWeather